Location: Unspecified
(40.8819°N, 0.0000°E)
Time: 09:18:02
(UTC+00:00)

NANOSAT C BR1 - Pass Details

Date: 29 April 2024
Orbit: 555 x 561 km, 98.1° (Epoch: 25 May)

Event Time Altitude Azimuth Distance (km) Brightness Sun altitude
Rises 03:49:10 0° 13° (NNE) 2,767 ? -12.9°
Reaches altitude 10° 03:51:19 10° 14° (NNE) 1,867 ? -12.6°
Maximum altitude 03:55:22 82° 101° (ESE) 575 ? -11.9°
Drops below altitude 10° 03:59:23 10° 191° (S) 1,851 ? -11.3°
Enters shadow 04:00:16 - 192° (SSW) 2,219 ? -11.1°
